Date String (YYYY-MM-DD hh:mm:ss) UTC,Instrument flags,Ambient pressure (hPa),Sample flow (lpm),Bypass flow (lpm),Sample temperature (°C),Ambient temperature (°C),ASC tube jacket temperature (°C),LED temperature (°C),Box temperature (°C),Sample RH (%),Span deviation,Mass concentration (μg/m³),Mass concentration (μg/m³),Mass concentration (μg/m³)
DateTimeUTC,F1_M11,P_M11,Q1_M11,Q2_M11,T1_M11,T2_M11,T3_M11,T4_M11,T5_M11,U1_M11,ZSPAN_M11,X2_M11,X0_M11,X1_M11
2022-05-30 19:00:00,,0814.1,4.99,0.00,25.3,24.3,00.0,34.2,27.3,13.3,0000.0,0000.68,0001.41,0000.35
2022-05-30 19:01:00,,0814.0,5.00,0.00,25.4,24.3,00.0,34.2,27.3,12.3,0000.0,0000.71,0001.48,0000.36
2022-05-30 19:02:00,,0813.9,5.02,0.00,25.4,24.3,00.0,34.2,27.3,12.3,0000.0,0000.65,0001.39,0000.37
2022-05-30 19:03:00,,0814.0,4.98,0.00,25.4,24.3,00.0,34.3,27.3,12.6,0000.0,0000.64,0001.33,0000.37
2022-05-30 19:04:00,,0814.0,5.00,0.00,25.4,24.3,00.0,34.3,27.3,11.7,0000.0,0000.63,0001.31,0000.37
2022-05-30 19:05:00,,0814.1,5.01,0.00,25.4,24.3,00.0,34.3,27.3,12.5,0000.0,0000.63,0001.32,0000.37
2022-05-30 19:06:00,,0814.0,4.99,0.00,25.4,24.3,00.0,34.3,27.3,12.0,0000.0,0000.67,0001.44,0000.37
2022-05-30 19:07:00,,0814.0,5.02,0.00,25.4,24.3,00.0,34.3,27.4,12.5,0000.0,0000.68,0001.45,0000.37
2022-05-30 19:08:00,,0813.9,4.99,0.00,25.4,24.4,00.0,34.3,27.4,12.3,0000.0,0000.69,0001.45,0000.38
2022-05-30 19:09:00,,0813.8,5.01,0.00,25.4,24.4,00.0,34.3,27.4,13.1,0000.0,0000.71,0001.48,0000.39
2022-05-30 19:10:00,,0814.0,4.99,0.00,25.4,24.4,00.0,34.3,27.4,12.0,0000.0,0000.71,0001.48,0000.39
2022-05-30 19:11:00,,0814.1,5.01,0.00,25.4,24.4,00.0,34.3,27.4,11.5,0000.0,0000.69,0001.46,0000.40
2022-05-30 19:12:00,,0814.0,5.00,0.00,25.4,24.4,00.0,34.3,27.4,11.5,0000.0,0000.63,0001.94,0000.40
2022-05-30 19:13:00,,0813.9,4.99,0.00,25.4,24.4,00.0,34.3,27.4,12.8,0000.0,0000.60,0002.08,0000.40
2022-05-30 19:14:00,,0813.8,5.01,0.00,25.4,24.4,00.0,34.3,27.4,12.9,0000.0,0000.61,0002.10,0000.40
2022-05-30 19:15:00,,0814.1,5.01,0.00,25.4,24.4,00.0,34.3,27.4,11.8,0000.0,0000.64,0002.16,0000.40
2022-05-30 19:16:00,,0813.9,5.00,0.00,25.4,24.4,00.0,34.3,27.4,12.7,0000.0,0000.65,0002.16,0000.41
2022-05-30 19:17:00,,0814.0,5.00,0.00,25.5,24.4,00.0,34.3,27.4,13.6,0000.0,0000.66,0002.14,0000.41
2022-05-30 19:18:00,,0813.9,5.01,0.00,25.5,24.4,00.0,34.3,27.4,13.7,0000.0,0000.69,0002.29,0000.41
2022-05-30 19:19:00,,0813.8,4.99,0.00,25.5,24.4,00.0,34.3,27.4,12.4,0000.0,0000.71,0002.38,0000.40
2022-05-30 19:20:00,,0813.8,5.01,0.00,25.5,24.4,00.0,34.4,27.4,12.6,0000.0,0000.71,0002.47,0000.40
2022-05-30 19:21:00,,0813.8,5.00,0.00,25.5,24.4,00.0,34.4,27.4,12.5,0000.0,0000.72,0002.57,0000.40
2022-05-30 19:22:00,,0813.7,5.00,0.00,25.5,24.4,00.0,34.4,27.4,12.1,0000.0,0000.78,0002.66,0000.40
2022-05-30 19:23:00,,0813.8,5.00,0.00,25.5,24.4,00.0,34.4,27.4,12.8,0000.0,0000.80,0002.07,0000.40
2022-05-30 19:24:00,,0813.7,5.00,0.00,25.5,24.4,00.0,34.4,27.4,13.6,0000.0,0000.81,0001.76,0000.39
2022-05-30 19:25:00,,0813.8,5.00,0.00,25.5,24.4,00.0,34.4,27.4,13.7,0000.0,0000.80,0001.76,0000.39
2022-05-30 19:26:00,,0813.9,4.99,0.00,25.5,24.4,00.0,34.4,27.4,13.4,0000.0,0000.79,0001.88,0000.38
2022-05-30 19:27:00,,0813.9,5.01,0.00,25.5,24.4,00.0,34.4,27.4,13.0,0000.0,0000.79,0001.94,0000.37
2022-05-30 19:28:00,,0814.0,4.99,0.00,25.5,24.4,00.0,34.4,27.4,13.7,0000.0,0000.75,0001.92,0000.36
2022-05-30 19:29:00,,0814.0,5.00,0.00,25.5,24.4,00.0,34.4,27.4,13.2,0000.0,0000.71,0001.79,0000.36
2022-05-30 19:30:00,,0813.9,5.00,0.00,25.5,24.4,00.0,34.4,27.4,13.3,0000.0,0000.69,0001.74,0000.35
2022-05-30 19:31:00,,0814.0,5.01,0.00,25.5,24.4,00.0,34.4,27.4,13.0,0000.0,0000.65,0001.58,0000.34
2022-05-30 19:32:00,,0814.0,5.00,0.00,25.5,24.4,00.0,34.4,27.5,13.2,0000.0,0000.64,0001.51,0000.34
2022-05-30 19:33:00,,0814.0,5.00,0.00,25.5,24.5,00.0,34.4,27.5,12.5,0000.0,0000.58,0001.32,0000.33
2022-05-30 19:34:00,,0814.0,4.99,0.00,25.5,24.5,00.0,34.4,27.5,12.2,0000.0,0000.56,0001.25,0000.33
2022-05-30 19:35:00,,0814.0,5.01,0.00,25.5,24.5,00.0,34.4,27.5,12.5,0000.0,0000.58,0001.30,0000.34
2022-05-30 19:36:00,,0814.0,4.99,0.00,25.5,24.5,00.0,34.4,27.5,12.5,0000.0,0000.59,0001.32,0000.33
2022-05-30 19:37:00,,0814.1,5.00,0.00,25.5,24.5,00.0,34.4,27.5,11.6,0000.0,0000.58,0001.15,0000.34
2022-05-30 19:38:00,,0814.2,5.01,0.00,25.5,24.5,00.0,34.4,27.5,12.2,0000.0,0000.58,0001.78,0000.34
2022-05-30 19:39:00,,0814.3,4.99,0.00,25.6,24.5,00.0,34.4,27.5,12.4,0000.0,0000.58,0002.60,0000.35
2022-05-30 19:40:00,,0814.4,4.99,0.00,25.6,24.5,00.0,34.4,27.5,12.7,0000.0,0000.60,0002.65,0000.36
2022-05-30 19:41:00,,0814.4,5.00,0.00,25.6,24.5,00.0,34.4,27.5,13.0,0000.0,0000.63,0002.75,0000.36
2022-05-30 19:42:00,,0814.2,5.00,0.00,25.6,24.5,00.0,34.4,27.5,12.6,0000.0,0000.67,0002.86,0000.37
2022-05-30 19:43:00,,0814.2,5.00,0.00,25.6,24.6,00.0,34.5,27.6,12.1,0000.0,0000.69,0002.93,0000.37
2022-05-30 19:44:00,,0814.4,5.01,0.00,25.6,24.6,00.0,34.5,27.6,12.1,0000.0,0000.71,0002.97,0000.37
2022-05-30 19:45:00,,0814.4,5.00,0.00,25.6,24.6,00.0,34.5,27.6,12.0,0000.0,0000.72,0003.04,0000.37
2022-05-30 19:46:00,,0814.3,4.99,0.00,25.6,24.6,00.0,34.5,27.6,12.1,0000.0,0000.73,0003.09,0000.38
2022-05-30 19:47:00,,0814.3,5.01,0.00,25.7,24.7,00.0,34.5,27.6,13.2,0000.0,0000.75,0003.16,0000.38
2022-05-30 19:48:00,,0814.3,5.00,0.00,25.7,24.7,00.0,34.5,27.6,12.4,0000.0,0000.76,0003.17,0000.38
2022-05-30 19:49:00,,0814.2,4.99,0.00,25.7,24.7,00.0,34.5,27.7,11.9,0000.0,0000.77,0002.38,0000.39
2022-05-30 19:50:00,,0814.2,5.00,0.00,25.7,24.7,00.0,34.5,27.7,10.9,0000.0,0000.74,0001.60,0000.39
2022-05-30 19:51:00,,0814.2,5.01,0.00,25.7,24.8,00.0,34.5,27.7,11.3,0000.0,0000.73,0001.54,0000.39
2022-05-30 19:52:00,,0814.2,4.98,0.00,25.7,24.8,00.0,34.5,27.7,12.2,0000.0,0000.68,0001.34,0000.40
2022-05-30 19:53:00,,0814.3,5.00,0.00,25.7,24.8,00.0,34.6,27.7,11.9,0000.0,0000.63,0001.19,0000.40
2022-05-30 19:54:00,,0814.3,5.00,0.00,25.7,24.8,00.0,34.6,27.7,10.5,0000.0,0000.64,0001.17,0000.41
2022-05-30 19:55:00,,0814.3,5.00,0.00,25.8,24.8,00.0,34.6,27.7,11.5,0000.0,0000.70,0001.28,0000.41
2022-05-30 19:56:00,,0814.4,4.98,0.00,25.8,24.8,00.0,34.6,27.7,11.4,0000.0,0000.71,0001.28,0000.42
2022-05-30 19:57:00,,0814.3,5.00,0.00,25.8,24.8,00.0,34.6,27.7,11.2,0000.0,0000.69,0001.19,0000.43
2022-05-30 19:58:00,,0814.3,5.00,0.00,25.8,24.8,00.0,34.6,27.8,11.9,0000.0,0000.66,0001.08,0000.43
2022-05-30 19:59:00,,0814.3,4.99,0.00,25.8,24.8,00.0,34.6,27.8,11.2,0000.0,0000.64,0001.02,0000.44
